Regional Weather Roundup
Issued by NWS

Home | Current Version | Previous Version | Graphics & Text | Print | Product List | Glossary Off
Versions: 1 2 3 4 5 6 7 8 9 10 11 12 13 14 15 16 17 18 19 20 21 22 23 24 25 26 27 28 29 30 31 32 33 34 35 36 37 38 39 40 41 42 43 44 45 46 47 48 49 50

000
ASUS43 KTOP 252359
RWRKS

WEATHER ROUNDUP FOR KANSAS
NATIONAL WEATHER SERVICE GOODLAND KS
700 PM CDT THU MAY 25 2017

NOTE:  "FAIR" INDICATES FEW OR NO CLOUDS BELOW 12,000 FEET WITH NO
SIGNIFICANT WEATHER AND/OR OBSTRUCTIONS TO VISIBILITY.

KSZ001>006-013>018-027>032-041>047-260100-
NORTHWEST KANSAS

CITY           SKY/WX    TMP DP  RH WIND       PRES   REMARKS
GOODLAND       CLOUDY    62  51  67 N29G40    29.58R
6HR MIN TEMP:  60; 6HR MAX TEMP:  85; 6HR PCP:  0.13;

HAYS           SUNNY     78  59  51 SE10      29.46S
HILL CITY      CLOUDY    77  58  51 NE7       29.48R
6HR MIN TEMP:  76; 6HR MAX TEMP:  86;

RUSSELL        SUNNY     79  59  50 SE12      29.46S
6HR MIN TEMP:  70; 6HR MAX TEMP:  80;

$$

KSZ061>065-074>080-084>089-260100-
SOUTHWEST KANSAS

CITY           SKY/WX    TMP DP  RH WIND       PRES   REMARKS
DODGE CITY     MOSUNNY   80  60  50 SE13G23   29.44F
6HR MIN TEMP:  74; 6HR MAX TEMP:  86;

ELKHART          N/A     89  36  15 MISG        N/A
GARDEN CITY    LGT RAIN  80  52  37 S15       29.42F
6HR MIN TEMP:  77; 6HR MAX TEMP:  91; 6HR PCP: TRACE;

GREAT BEND     SUNNY     81  59  47 S18       29.44F
LIBERAL        SUNNY     91  45  20 SW21      29.45S
$$

KSZ066>073-081>083-090>101-260100-
SOUTHEAST KANSAS

CITY           SKY/WX    TMP DP  RH WIND       PRES   REMARKS
CHANUTE        SUNNY     78  58  49 S16       29.56S
6HR MIN TEMP:  74; 6HR MAX TEMP:  79;

COFFEYVILLE    SUNNY     79  61  53 S14       29.56S
6HR MIN TEMP:  75; 6HR MAX TEMP:  81;

HUTCHINSON     SUNNY     82  58  43 S16       29.45F
6HR MIN TEMP:  74; 6HR MAX TEMP:  83;

MEDICINE LODGE   N/A     84  56  38 S17G26    29.44F
NEWTON         SUNNY     78  59  51 S18G24    29.50S
PARSONS        SUNNY     80  58  46 S9        29.58R
6HR MIN TEMP:  75; 6HR MAX TEMP:  81;

WICHITA INTL   MOSUNNY   82  60  47 S22G29    29.47F
6HR MIN TEMP:  72; 6HR MAX TEMP:  83;

WICHITA JABRA  SUNNY     80  60  50 S15G25    29.49S
6HR MIN TEMP:  70; 6HR MAX TEMP:  80; 6HR PCP: TRACE;

WINFIELD       SUNNY     81  61  50 S17G24    29.51F
6HR MIN TEMP:  75; 6HR MAX TEMP:  82;

$$

KSZ007>012-019>026-033>040-048>060-102>105-260100-
NORTHEAST KANSAS

CITY           SKY/WX    TMP DP  RH WIND       PRES   REMARKS
CONCORDIA      CLOUDY    77  59  53 S10       29.51R
6HR MIN TEMP:  68; 6HR MAX TEMP:  77;

EMPORIA        SUNNY     76  57  51 S20       29.53S
6HR MIN TEMP:  73; 6HR MAX TEMP:  78;

LAWRENCE       SUNNY     76  55  48 SE21G29   29.55F
6HR MIN TEMP:  74; 6HR MAX TEMP:  80;

MANHATTAN      SUNNY     77  56  48 S16       29.51S
6HR MIN TEMP:  75; 6HR MAX TEMP:  80;

OLATHE IND     SUNNY     75  55  49 SE18G24   29.57F
6HR MIN TEMP:  72; 6HR MAX TEMP:  77;

OLATHE EXE     SUNNY     73  56  54 SE13G21   29.58F
6HR MIN TEMP:  70; 6HR MAX TEMP:  75;

SALINA         SUNNY     81  58  45 SE13      29.48S
6HR MIN TEMP:  72; 6HR MAX TEMP:  82;

TOPEKA BILLARD SUNNY     77  57  50 SE15      29.54S
6HR MIN TEMP:  74; 6HR MAX TEMP:  79;

TOPEKA FORBES  SUNNY     78  56  46 SE20G25   29.54S
6HR MIN TEMP:  74; 6HR MAX TEMP:  80;

$$




USA.gov is the U.S. government's official web portal to all federal, state and local government web resources and services.